SCP
0 0 0 0 0 0 0 0 0 0 0 0 0 0 0 0 0 0 0 0 0 0 0 0 0 0 0 0 0 0 0 0 1 1 0 0 0 0 0 0 0 0 0 0
0 0 0 0 0 0 0 0 0 0 0 0 0 0 0 0 0 0 0 0 0 0 0 0 0 0 0 0 0 0 0 0 1 1 1 0 0 0 0 0 0 0 0 0
0 0 0 0 0 0 0 0 0 0 0 0 0 0 0 0 0 0 0 0 0 0 0 0 0 0 0 0 0 1 0 1 1 1 0 0 0 0 0 0 0 0 0 0
0 0 0 0 0 0 0 0 0 0 0 0 0 0 0 0 0 0 0 0 0 0 0 0 0 0 0 0 1 1 0 1 0 0 0 1 0 0 0 0 0 0 0 0
0 0 0 0 0 0 0 0 0 0 0 0 0 0 0 0 0 0 0 0 0 0 0 0 0 0 1 1 1 1 0 0 0 0 0 0 0 0 0 0 0 0 0 0
0 0 0 0 0 0 0 0 0 0 0 0 0 0 0 0 0 0 0 0 0 0 0 1 2 2 1 1 1 1 0 0 0 0 0 0 0 0 0 0 0 0 0 0
0 0 0 0 0 0 0 0 0 0 0 0 0 0 0 0 0 0 0 0 0 0 0 1 1 1 1 1 1 1 1 0 0 0 0 0 0 0 0 0 0 0 0 0
0 0 0 0 0 0 0 0 0 0 0 0 0 0 0 0 0 0 0 0 0 0 1 1 1 0 0 0 1 0 0 0 0 0 0 0 0 0 0 0 0 0 0 0
0 0 0 0 0 0 0 0 0 0 0 0 0 0 0 0 0 0 0 0 0 0 0 0 0 0 0 0 0 0 0 0 0 0 0 0 0 0 0 0 0 0 0 0
0 0 0 0 0 0 0 0 0 0 0 0 0 0 0 0 0 0 0 0 0 0 0 0 0 0 0 0 0 0 0 0 0 0 0 0 0 0 0 0 0 0 0 0
0 0 0 0 0 0 0 0 0 0 0 0 0 0 0 0 0 0 0 0 0 0 0 0 0 0 0 0 0 0 0 0 0 0 0 0 0 0 0 0 0 0 0 0
0 0 0 0 0 0 0 0 0 0 0 0 0 0 0 0 0 0 0 0 0 0 0 0 0 0 0 0 0 0 0 0 0 0 0 0 0 0 0 0 0 0 0 0
0 0 0 0 0 0 0 0 0 0 0 0 0 0 0 0 0 0 0 0 0 0 0 0 0 0 0 0 0 0 0 0 0 0 0 0 0 0 0 0 0 0 0 0
0 0 0 0 0 0 0 0 0 0 0 0 0 0 0 0 0 0 0 0 0 0 0 0 0 0 0 0 0 0 0 0 0 0 0 0 0 0 0 0 0 0 0 0
0 0 0 0 0 0 0 0 0 0 0 0 0 0 0 0 0 0 0 0 0 0 0 0 0 0 0 0 0 0 0 0 0 0 0 0 0 0 0 0 0 0 0 0
0 0 0 0 0 0 0 0 0 0 0 0 0 0 0 0 0 0 0 0 0 0 0 0 0 0 0 0 0 0 0 0 0 0 0 0 0 0 0 0 0 0 0 0
0 0 0 0 0 0 -0 0 0 0 0 0 0 0 0 0 0 0 0 0 0 0 0 0 0 0 0 0 0 0 0 0 0 0 0 0 0 0 0 0 0 0 0 0
0 0 0 0 0 -0 0 0 0 0 0 0 0 0 0 0 0 0 0 0 0 0 0 0 0 0 0 0 0 0 0 0 0 0 0 0 0 0 0 0 0 0 0 0
0 0 0 0 0 0 0 0 0 0 0 0 0 0 0 0 0 0 0 0 0 0 0 0 0 0 0 0 0 0 0 0 0 0 0 0 0 0 0 0 0 0 0 0
0 0 0 0 0 0 0 0 0 0 0 0 0 0 0 0 0 0 0 0 0 0 0 0 0 0 0 0 0 0 0 0 0 0 0 0 0 0 0 0 0 0 0 0
0 0 0 0 0 0 0 0 0 0 0 0 -0 0 0 0 0 0 0 0 0 0 0 0 0 0 0 0 0 0 0 0 0 0 0 0 0 0 0 0 0 0 0 0
0 0 0 0 0 0 0 0 0 0 0 0 0 0 0 0 0 0 0 0 0 0 0 0 0 0 0 0 0 0 0 0 0 0 0 0 0 0 0 0 0 0 0 0
0 0 0 0 0 0 0 0 0 0 0 0 0 0 0 0 0 0 0 0 0 0 0 0 0 0 0 0 0 0 0 0 0 0 0 0 0 0 0 0 0 0 0 0
0 0 0 0 0 0 0 -0 0 0 0 0 0 0 0 0 0 0 0 0 0 0 0 0 0 0 0 0 0 0 0 0 0 0 0 0 0 0 0 0 0 0 0 0
0 0 0 0 -0 -0 -0 -0 0 0 0 0 0 0 0 0 0 0 0 0 0 0 0 0 0 0 0 0 0 0 0 0 0 0 0 0 0 0 -0 -0 0 -0 -0 -0
0 0 0 0 0 -0 0 0 0 0 0 0 0 0 0 0 0 0 0 0 0 0 0 0 0 0 0 0 0 0 0 0 0 0 0 0 -0 -0 -0 -0 0 -0 -0 -0
Wind_Speed_500mb
23 12 26 17 15 8 13 11 14 3 13 18 17 13 18 27 31 33 54 58 62 66 53 44 41 43 54 53 44 45 53 57 61 77 66 60 57 60 62 59 54 54 48 46
9 37 21 16 21 27 27 28 34 7 7 6 9 20 19 19 21 39 51 62 73 67 60 50 55 54 54 55 49 46 51 51 66 70 74 67 64 59 62 57 56 55 54 50
25 12 30 24 25 26 25 35 19 8 8 11 7 18 13 23 25 55 58 67 72 70 71 53 54 56 59 56 53 46 48 49 67 79 78 72 63 61 61 60 59 53 47 47
22 27 28 29 37 21 29 12 14 8 5 9 6 11 12 16 26 19 49 49 68 59 46 41 34 47 57 56 49 38 34 48 61 73 79 75 70 67 64 56 48 52 52 54
17 22 35 39 27 27 19 7 10 10 13 9 15 4 17 5 16 13 16 43 35 33 39 46 42 39 45 34 27 33 36 47 64 69 72 69 64 64 46 55 54 50 64 61
21 22 26 45 30 28 23 22 9 11 3 6 31 19 11 8 14 2 3 20 29 38 39 39 34 29 25 20 14 17 25 34 44 51 52 67 55 50 47 53 59 66 58 63
8 21 9 16 25 25 22 9 2 6 9 22 9 11 18 10 9 6 8 27 40 47 50 51 49 44 41 38 34 29 34 35 40 40 44 47 46 47 44 45 45 43 54 51
19 10 29 17 18 11 24 20 8 10 9 21 6 14 7 14 20 10 6 46 43 60 65 59 52 49 45 42 36 31 27 26 27 30 33 38 44 41 41 42 42 41 35 37
9 12 4 16 23 28 10 36 28 2 4 3 6 6 4 25 20 19 41 48 26 55 70 71 63 55 45 33 22 14 17 20 19 18 19 26 28 30 32 37 44 43 47 56
13 4 8 8 9 21 29 15 10 8 8 3 7 4 1 11 16 13 27 11 48 58 67 69 64 60 51 41 31 19 16 11 9 15 13 11 14 18 24 31 35 39 45 44
7 3 4 6 8 20 13 13 5 10 9 11 6 1 5 2 9 12 15 22 33 59 65 70 72 64 58 53 47 42 33 31 31 28 26 17 15 15 15 15 19 14 13 12
23 6 9 21 4 8 21 17 28 9 10 6 9 3 1 6 12 23 22 29 47 66 69 74 73 69 63 57 49 46 44 39 37 34 32 30 26 25 22 21 24 21 17 14
14 5 7 3 4 14 9 10 9 8 5 13 11 7 10 9 23 34 25 28 37 66 68 69 70 67 62 57 52 49 44 41 37 31 28 27 25 20 18 14 8 7 7 7
11 9 8 13 5 11 18 19 12 14 8 10 11 17 11 12 21 17 24 35 39 51 66 67 67 66 62 57 51 48 44 38 33 27 22 17 14 10 7 6 4 1 3 3
3 13 11 8 5 2 8 16 13 10 14 12 18 22 29 33 33 17 18 25 39 38 53 60 63 61 56 53 45 37 32 24 17 13 11 8 4 3 4 7 8 9 10 15
4 9 12 12 4 10 8 3 9 3 13 13 22 9 13 27 39 46 23 25 38 39 44 52 52 46 40 37 33 24 22 16 11 8 6 3 3 7 11 15 20 24 28 33
4 7 13 12 15 10 15 23 11 8 2 22 11 14 29 32 31 47 48 31 27 37 39 39 39 34 27 21 16 13 15 15 15 14 12 12 15 20 25 29 34 39 42 45
6 6 4 10 16 10 7 14 15 11 9 17 21 31 26 32 40 40 54 58 58 60 53 37 28 21 14 10 9 14 15 14 14 16 20 26 29 32 35 39 43 45 46 47
9 4 7 6 5 14 21 5 9 32 6 8 32 27 36 50 53 26 49 56 56 45 37 31 26 18 16 11 6 7 5 8 15 21 25 29 34 38 41 46 49 48 50 50
8 11 6 3 6 5 6 12 23 11 3 9 38 36 40 44 13 4 48 52 46 36 30 30 26 20 15 16 15 9 7 10 12 14 21 28 35 42 47 51 52 55 60 63
5 5 8 6 4 7 6 9 4 8 9 4 47 55 50 20 25 55 49 44 39 35 29 24 20 18 14 12 10 11 9 15 17 20 26 34 42 51 56 59 61 66 68 67
7 6 5 3 7 1 16 6 7 11 25 45 37 42 44 58 65 49 44 41 38 35 29 21 15 11 9 7 10 16 22 27 32 40 48 55 61 65 69 71 71 69 67 60
7 4 8 5 4 12 29 39 54 58 54 58 57 54 61 60 53 50 45 41 36 28 21 14 8 6 5 13 21 28 33 40 48 56 63 67 68 66 62 59 52 46 39 34
6 4 8 5 14 16 38 55 59 64 66 59 55 51 48 52 46 42 34 25 15 11 6 3 10 15 21 28 33 38 44 52 61 66 67 62 55 47 38 33 31 29 24 22
1 8 9 14 19 40 39 54 62 63 60 59 51 44 41 39 32 24 19 13 8 9 12 16 20 25 31 37 42 47 55 63 65 58 49 38 30 26 23 21 20 19 14 15
6 11 8 6 11 31 17 42 49 51 49 47 47 44 34 25 27 19 14 10 11 16 21 26 31 37 41 46 51 55 56 51 43 32 25 22 21 20 20 19 13 12 12 9
Wind_Direction_500mb
189 193 216 196 209 250 296 278 248 192 247 197 240 257 253 258 256 250 255 259 268 264 264 256 250 255 259 259 243 212 214 213 216 212 209 208 211 215 217 219 222 224 229 232
199 228 203 210 199 214 239 261 262 291 259 215 278 271 259 247 249 243 247 252 258 257 258 254 253 253 257 259 248 218 211 219 217 217 213 217 216 221 222 224 224 231 233 236
210 194 197 208 221 214 218 223 240 218 314 280 291 290 286 271 245 248 248 252 257 254 254 255 251 249 248 253 249 230 215 220 220 215 213 216 222 221 221 228 229 232 236 250
230 220 245 216 219 209 235 205 224 227 252 236 129 280 282 276 256 220 232 239 251 249 249 233 230 229 234 241 250 236 226 210 222 219 214 220 224 227 234 240 255 248 255 257
219 199 219 240 239 224 246 209 228 212 233 264 254 290 261 331 265 240 213 229 246 217 213 212 217 223 227 230 222 209 209 215 222 221 223 224 231 235 249 258 257 265 256 257
216 224 206 230 233 233 234 269 335 349 126 250 243 198 279 232 223 202 19 230 189 159 166 167 160 157 162 132 147 180 200 210 207 214 220 227 228 242 259 263 262 268 256 265
302 255 233 216 220 228 212 143 123 226 194 234 205 181 226 289 269 174 209 159 149 147 144 140 142 144 142 146 152 163 186 189 202 210 223 231 239 249 258 260 261 270 261 280
198 239 200 193 196 184 206 187 178 161 199 231 198 224 234 285 266 140 131 145 137 126 129 132 139 144 146 154 161 175 184 196 215 226 236 243 248 254 258 265 268 278 284 282
226 235 214 192 210 189 225 184 200 197 19 134 213 250 184 5 6 102 108 113 113 116 118 113 110 110 118 145 146 171 196 206 209 215 246 258 269 269 272 274 280 273 283 282
215 213 218 195 189 201 208 154 204 198 205 182 260 90 48 346 329 350 94 75 131 121 119 116 112 109 107 107 107 107 107 126 173 216 239 261 281 297 298 294 291 285 283 279
135 152 183 39 210 188 188 186 125 156 172 179 165 10 274 261 351 38 61 98 129 124 121 119 116 113 111 109 106 103 98 95 94 93 89 81 82 62 58 53 58 57 50 34
177 175 210 211 261 272 199 184 180 172 216 211 148 177 139 106 50 50 33 89 121 123 121 122 120 121 118 115 112 111 110 109 106 104 104 97 94 94 92 92 92 86 67 57
155 216 133 125 39 278 196 192 164 152 131 186 125 190 210 109 56 47 40 73 101 122 126 125 125 124 123 123 122 119 115 116 111 110 109 105 102 101 89 83 73 44 50 49
155 216 194 189 177 173 196 192 172 162 137 177 171 142 194 171 93 57 69 85 100 119 130 128 122 119 121 122 121 120 118 119 121 121 113 101 93 83 79 76 75 37 358 318
217 215 168 106 114 64 207 190 152 169 172 162 173 163 181 170 139 120 94 108 101 106 126 124 122 121 118 118 113 113 108 106 103 104 103 97 72 356 322 300 304 311 305 303
55 274 153 169 325 103 21 301 144 176 116 85 130 67 131 141 126 141 196 112 111 116 124 123 122 121 115 108 107 98 85 69 43 46 51 58 308 300 301 307 310 309 309 309
218 233 137 175 161 130 216 236 194 149 177 136 148 166 147 149 151 165 167 186 144 144 142 146 132 125 114 98 77 50 38 24 11 17 19 357 331 323 320 319 317 315 313 313
241 131 89 122 112 212 272 201 190 122 65 98 103 138 143 149 157 167 163 166 173 171 166 142 133 123 102 66 25 12 2 347 348 344 338 337 331 328 327 325 324 322 319 317
256 133 104 132 180 146 82 148 172 157 69 341 121 121 114 119 111 83 146 158 157 151 141 133 128 135 139 144 174 219 261 326 325 325 324 319 318 317 319 320 322 321 320 319
78 72 72 78 84 97 180 83 97 110 21 343 141 135 132 131 122 152 136 141 140 145 145 152 163 173 170 164 184 208 254 276 293 300 306 310 312 315 316 317 316 316 316 315
77 22 89 25 74 68 12 325 108 82 202 137 145 140 139 127 141 147 141 141 145 156 166 174 173 176 155 163 206 246 258 291 310 312 311 310 310 309 308 307 307 307 307 307
114 106 107 287 86 4 12 322 160 149 100 118 121 130 112 129 143 147 147 143 153 158 153 161 176 175 174 215 271 295 304 309 308 308 307 306 303 301 299 299 300 301 302 303
46 155 130 95 193 321 56 94 102 106 98 110 114 116 127 133 135 138 136 138 138 139 141 144 162 182 251 283 292 298 305 306 306 306 305 305 305 303 303 304 304 303 304 304
81 27 91 90 25 42 68 97 108 118 116 122 131 138 141 130 134 132 133 130 134 142 161 245 283 292 293 294 298 303 307 310 310 309 311 310 309 309 311 312 312 314 318 322
329 27 98 83 102 79 67 104 114 114 120 121 124 128 128 133 129 141 150 164 195 245 266 282 293 298 302 303 305 309 311 309 308 310 312 314 319 325 328 333 332 331 333 331
353 152 129 159 114 109 119 122 127 122 119 122 126 120 119 131 139 149 166 198 243 267 279 288 294 297 297 299 302 304 305 306 308 313 319 330 338 341 344 345 354 356 3 353
Wind_Speed_850mb
23 12 26 17 15 8 13 11 14 3 13 18 17 13 18 27 31 33 54 58 62 66 53 44 41 43 54 53 44 45 53 57 61 77 66 60 57 60 62 59 54 54 48 46
9 37 21 16 21 27 27 28 34 7 7 6 9 20 19 19 21 39 51 62 73 67 60 50 55 54 54 55 49 46 51 51 66 70 74 67 64 59 62 57 56 55 54 50
25 12 30 24 25 26 25 35 19 8 8 11 7 18 13 23 25 55 58 67 72 70 71 53 54 56 59 56 53 46 48 49 67 79 78 72 63 61 61 60 59 53 47 47
22 27 28 29 37 21 29 12 14 8 5 9 6 11 12 16 26 19 49 49 68 59 46 41 34 47 57 56 49 38 34 48 61 73 79 75 70 67 64 56 48 52 52 54
17 22 35 39 27 27 19 7 10 10 13 9 15 4 17 5 16 13 16 43 35 33 39 46 42 39 45 34 27 33 36 47 64 69 72 69 64 64 46 55 54 50 64 61
21 22 26 45 30 28 23 22 9 11 3 6 31 19 11 8 14 2 3 20 29 38 39 39 34 29 25 20 14 17 25 34 44 51 52 67 55 50 47 53 59 66 58 63
8 21 9 16 25 25 22 9 2 6 9 22 9 11 18 10 9 6 8 27 40 47 50 51 49 44 41 38 34 29 34 35 40 40 44 47 46 47 44 45 45 43 54 51
19 10 29 17 18 11 24 20 8 10 9 21 6 14 7 14 20 10 6 46 43 60 65 59 52 49 45 42 36 31 27 26 27 30 33 38 44 41 41 42 42 41 35 37
9 12 4 16 23 28 10 36 28 2 4 3 6 6 4 25 20 19 41 48 26 55 70 71 63 55 45 33 22 14 17 20 19 18 19 26 28 30 32 37 44 43 47 56
13 4 8 8 9 21 29 15 10 8 8 3 7 4 1 11 16 13 27 11 48 58 67 69 64 60 51 41 31 19 16 11 9 15 13 11 14 18 24 31 35 39 45 44
7 3 4 6 8 20 13 13 5 10 9 11 6 1 5 2 9 12 15 22 33 59 65 70 72 64 58 53 47 42 33 31 31 28 26 17 15 15 15 15 19 14 13 12
23 6 9 21 4 8 21 17 28 9 10 6 9 3 1 6 12 23 22 29 47 66 69 74 73 69 63 57 49 46 44 39 37 34 32 30 26 25 22 21 24 21 17 14
14 5 7 3 4 14 9 10 9 8 5 13 11 7 10 9 23 34 25 28 37 66 68 69 70 67 62 57 52 49 44 41 37 31 28 27 25 20 18 14 8 7 7 7
11 9 8 13 5 11 18 19 12 14 8 10 11 17 11 12 21 17 24 35 39 51 66 67 67 66 62 57 51 48 44 38 33 27 22 17 14 10 7 6 4 1 3 3
3 13 11 8 5 2 8 16 13 10 14 12 18 22 29 33 33 17 18 25 39 38 53 60 63 61 56 53 45 37 32 24 17 13 11 8 4 3 4 7 8 9 10 15
4 9 12 12 4 10 8 3 9 3 13 13 22 9 13 27 39 46 23 25 38 39 44 52 52 46 40 37 33 24 22 16 11 8 6 3 3 7 11 15 20 24 28 33
4 7 13 12 15 10 15 23 11 8 2 22 11 14 29 32 31 47 48 31 27 37 39 39 39 34 27 21 16 13 15 15 15 14 12 12 15 20 25 29 34 39 42 45
6 6 4 10 16 10 7 14 15 11 9 17 21 31 26 32 40 40 54 58 58 60 53 37 28 21 14 10 9 14 15 14 14 16 20 26 29 32 35 39 43 45 46 47
9 4 7 6 5 14 21 5 9 32 6 8 32 27 36 50 53 26 49 56 56 45 37 31 26 18 16 11 6 7 5 8 15 21 25 29 34 38 41 46 49 48 50 50
8 11 6 3 6 5 6 12 23 11 3 9 38 36 40 44 13 4 48 52 46 36 30 30 26 20 15 16 15 9 7 10 12 14 21 28 35 42 47 51 52 55 60 63
5 5 8 6 4 7 6 9 4 8 9 4 47 55 50 20 25 55 49 44 39 35 29 24 20 18 14 12 10 11 9 15 17 20 26 34 42 51 56 59 61 66 68 67
7 6 5 3 7 1 16 6 7 11 25 45 37 42 44 58 65 49 44 41 38 35 29 21 15 11 9 7 10 16 22 27 32 40 48 55 61 65 69 71 71 69 67 60
7 4 8 5 4 12 29 39 54 58 54 58 57 54 61 60 53 50 45 41 36 28 21 14 8 6 5 13 21 28 33 40 48 56 63 67 68 66 62 59 52 46 39 34
6 4 8 5 14 16 38 55 59 64 66 59 55 51 48 52 46 42 34 25 15 11 6 3 10 15 21 28 33 38 44 52 61 66 67 62 55 47 38 33 31 29 24 22
1 8 9 14 19 40 39 54 62 63 60 59 51 44 41 39 32 24 19 13 8 9 12 16 20 25 31 37 42 47 55 63 65 58 49 38 30 26 23 21 20 19 14 15
6 11 8 6 11 31 17 42 49 51 49 47 47 44 34 25 27 19 14 10 11 16 21 26 31 37 41 46 51 55 56 51 43 32 25 22 21 20 20 19 13 12 12 9
Wind_Direction_850mb
189 193 216 196 209 250 296 278 248 192 247 197 240 257 253 258 256 250 255 259 268 264 264 256 250 255 259 259 243 212 214 213 216 212 209 208 211 215 217 219 222 224 229 232
199 228 203 210 199 214 239 261 262 291 259 215 278 271 259 247 249 243 247 252 258 257 258 254 253 253 257 259 248 218 211 219 217 217 213 217 216 221 222 224 224 231 233 236
210 194 197 208 221 214 218 223 240 218 314 280 291 290 286 271 245 248 248 252 257 254 254 255 251 249 248 253 249 230 215 220 220 215 213 216 222 221 221 228 229 232 236 250
230 220 245 216 219 209 235 205 224 227 252 236 129 280 282 276 256 220 232 239 251 249 249 233 230 229 234 241 250 236 226 210 222 219 214 220 224 227 234 240 255 248 255 257
219 199 219 240 239 224 246 209 228 212 233 264 254 290 261 331 265 240 213 229 246 217 213 212 217 223 227 230 222 209 209 215 222 221 223 224 231 235 249 258 257 265 256 257
216 224 206 230 233 233 234 269 335 349 126 250 243 198 279 232 223 202 19 230 189 159 166 167 160 157 162 132 147 180 200 210 207 214 220 227 228 242 259 263 262 268 256 265
302 255 233 216 220 228 212 143 123 226 194 234 205 181 226 289 269 174 209 159 149 147 144 140 142 144 142 146 152 163 186 189 202 210 223 231 239 249 258 260 261 270 261 280
198 239 200 193 196 184 206 187 178 161 199 231 198 224 234 285 266 140 131 145 137 126 129 132 139 144 146 154 161 175 184 196 215 226 236 243 248 254 258 265 268 278 284 282
226 235 214 192 210 189 225 184 200 197 19 134 213 250 184 5 6 102 108 113 113 116 118 113 110 110 118 145 146 171 196 206 209 215 246 258 269 269 272 274 280 273 283 282
215 213 218 195 189 201 208 154 204 198 205 182 260 90 48 346 329 350 94 75 131 121 119 116 112 109 107 107 107 107 107 126 173 216 239 261 281 297 298 294 291 285 283 279
135 152 183 39 210 188 188 186 125 156 172 179 165 10 274 261 351 38 61 98 129 124 121 119 116 113 111 109 106 103 98 95 94 93 89 81 82 62 58 53 58 57 50 34
177 175 210 211 261 272 199 184 180 172 216 211 148 177 139 106 50 50 33 89 121 123 121 122 120 121 118 115 112 111 110 109 106 104 104 97 94 94 92 92 92 86 67 57
155 216 133 125 39 278 196 192 164 152 131 186 125 190 210 109 56 47 40 73 101 122 126 125 125 124 123 123 122 119 115 116 111 110 109 105 102 101 89 83 73 44 50 49
155 216 194 189 177 173 196 192 172 162 137 177 171 142 194 171 93 57 69 85 100 119 130 128 122 119 121 122 121 120 118 119 121 121 113 101 93 83 79 76 75 37 358 318
217 215 168 106 114 64 207 190 152 169 172 162 173 163 181 170 139 120 94 108 101 106 126 124 122 121 118 118 113 113 108 106 103 104 103 97 72 356 322 300 304 311 305 303
55 274 153 169 325 103 21 301 144 176 116 85 130 67 131 141 126 141 196 112 111 116 124 123 122 121 115 108 107 98 85 69 43 46 51 58 308 300 301 307 310 309 309 309
218 233 137 175 161 130 216 236 194 149 177 136 148 166 147 149 151 165 167 186 144 144 142 146 132 125 114 98 77 50 38 24 11 17 19 357 331 323 320 319 317 315 313 313
241 131 89 122 112 212 272 201 190 122 65 98 103 138 143 149 157 167 163 166 173 171 166 142 133 123 102 66 25 12 2 347 348 344 338 337 331 328 327 325 324 322 319 317
256 133 104 132 180 146 82 148 172 157 69 341 121 121 114 119 111 83 146 158 157 151 141 133 128 135 139 144 174 219 261 326 325 325 324 319 318 317 319 320 322 321 320 319
78 72 72 78 84 97 180 83 97 110 21 343 141 135 132 131 122 152 136 141 140 145 145 152 163 173 170 164 184 208 254 276 293 300 306 310 312 315 316 317 316 316 316 315
77 22 89 25 74 68 12 325 108 82 202 137 145 140 139 127 141 147 141 141 145 156 166 174 173 176 155 163 206 246 258 291 310 312 311 310 310 309 308 307 307 307 307 307
114 106 107 287 86 4 12 322 160 149 100 118 121 130 112 129 143 147 147 143 153 158 153 161 176 175 174 215 271 295 304 309 308 308 307 306 303 301 299 299 300 301 302 303
46 155 130 95 193 321 56 94 102 106 98 110 114 116 127 133 135 138 136 138 138 139 141 144 162 182 251 283 292 298 305 306 306 306 305 305 305 303 303 304 304 303 304 304
81 27 91 90 25 42 68 97 108 118 116 122 131 138 141 130 134 132 133 130 134 142 161 245 283 292 293 294 298 303 307 310 310 309 311 310 309 309 311 312 312 314 318 322
329 27 98 83 102 79 67 104 114 114 120 121 124 128 128 133 129 141 150 164 195 245 266 282 293 298 302 303 305 309 311 309 308 310 312 314 319 325 328 333 332 331 333 331
353 152 129 159 114 109 119 122 127 122 119 122 126 120 119 131 139 149 166 198 243 267 279 288 294 297 297 299 302 304 305 306 308 313 319 330 338 341 344 345 354 356 3 353